Regional Weather Roundup
Issued by NWS Charleston, SC

Current Version | Previous Version | Graphics & Text | Print | Product List | Glossary On
Versions: 1 2 3 4 5 6 7 8 9 10 11 12 13 14 15 16 17 18 19 20 21 22 23 24 25 26 27 28 29 30 31 32 33 34 35 36 37 38 39 40 41 42 43 44 45 46 47 48 49 50
000
ASUS42 KCHS 041412
RWRCHS

REGIONAL WEATHER ROUNDUP
NATIONAL WEATHER SERVICE CHARLESTON SC
1000 AM EDT MON MAY 04 2015

NOTE: "FAIR" INDICATES FEW OR NO CLOUDS BELOW 12,000 FEET WITH NO
SIGNIFICANT WEATHER AND/OR OBSTRUCTIONS TO VISIBILITY.

NOT ALL STATIONS ARE QUALITY CONTROLLED BY THE NATIONAL
WEATHER SERVICE. USE DATA WITH CAUTION...ESPECIALLY
DEWPOINT OBSERVATIONS.

SCZ027-030-031-034>040-042>050-041500-
...SOUTHEAST SOUTH CAROLINA...

CITY           SKY/WX    TMP DP  RH WIND       PRES   REMARKS
N CHARLESTON   MOSUNNY   75  59  57 S6        30.33R
WATERFRONT PRK   N/A     73 N/A N/A CALM        N/A
MOUNT PLEASANT FAIR      75  61  60 MISG      30.33R
PINOPOLIS      NOT AVBL
MONCKS CORNER  FAIR      73  61  64 S3        30.33R
SUMMERVILLE    FAIR      73  63  68 S5        30.34R
BEAUFORT MCAS  SUNNY     75  64  68 CALM      30.32R
BEAUFORT ARPT  FAIR      73  64  73 CALM      30.31S
HILTON HEAD IS MOSUNNY   73  61  64 NE6       30.33R
WALTERBORO     SUNNY     72  59  64 SE3       30.33R
ALLENDALE      FAIR      72  55  56 CALM      30.32S

...SOUTHERN MIDLANDS AND PEE DEE...

CITY           SKY/WX    TMP DP  RH WIND       PRES   REMARKS
GEORGETOWN     NOT AVBL
KINGSTREE      NOT AVBL
ORANGEBURG     SUNNY     71  53  52 W5        30.33R
BARNWELL       FAIR      73  57  56 SW5       30.33S
AIKEN          FAIR      70  50  49 SW8       30.35S
MANNING        FAIR      72  54  53 S3        30.33R
COLUMBIA       SUNNY     70  52  52 SW5       30.32S
SUMTER         SUNNY     73  51  45 SW8       30.31R
FLORENCE       MOSUNNY   72  57  59 SW6       30.33R
MYRTLE BEACH   SUNNY     73  61  64 S8        30.36R
N MYRTLE BEACH SUNNY     73  59  61 S7        30.34R

$$

GAZ063-065-086>088-099>101-113>116-118-119-134>141-150-041500-
...SOUTHEAST GEORGIA...

CITY           SKY/WX    TMP DP  RH WIND       PRES   REMARKS
SAVANNAH ARPT  MOSUNNY   75  59  57 NE7       30.31R
HUNTER AAF     SUNNY     75  63  64 E6        30.29R
FORT STEWART   SUNNY     73  57  57 E2        30.29R
STATESBORO       N/A     72  57  60 CALM      30.32S
SYLVANIA       SUNNY     72  56  58 CALM      30.33R
CLAXTON        FAIR      72  61  68 CALM      30.32R

...CSRA...CENTRAL AND FAR SOUTHEAST GEORGIA...

CITY           SKY/WX    TMP DP  RH WIND       PRES   REMARKS
THOMSON        SUNNY     73  59  62 SW5       30.36R
AUGUSTA-BUSH   SUNNY     68  56  65 CALM      30.32R
AUGUSTA-DANIEL SUNNY     69  53  56 CALM      30.32S
SWAINSBORO     NOT AVBL
VIDALIA        SUNNY     72  59  64 CALM      30.32R
EASTMAN        FAIR      70  60  71 S5        30.34R
HAZLEHURST     FAIR      73  60  64 CALM      30.30R
ALMA           SUNNY     72  56  57 SE3       30.30R
WAYCROSS       SUNNY     76  62  59 NE5       30.29R
JESUP          FAIR      77  61  57 E6        30.30S
BAXLEY         FAIR      73  57  56 CALM      30.30R
BRUNSWICK      SUNNY     75  61  60 NE9       30.30R
SAINT SIMONS   SUNNY     74  63  68 NE13      30.29R

$$

SCZ027-028-034-036>038-045-046-048>050-GAZ119-141-041500-
...LAKE AND SUPPLEMENTAL COASTAL OBSERVATIONS...

STATION/POSITION TIME  TEMP    WIND        PRES    WAVE   SWELL
                       AIR SEA DIR/SP/G            HT/PER HT/PER/DIR
                 (UTC) (F)     (DEG/KT/KT) (MB)    (FT/S) (FT/S/D)
UPR LAKE MARION  NOT AVBL
WINYAH BAY       1245   72        CALM     1026.0
LAKE MURRAY      1300   67     200/  3/  8 1026.1R
ACE BASIN NERRS  NOT AVBL
FORT PULASKI     1312   70 70   50/  8/ 11 1026.6R
SAPELO ISLAND    1300   72      40/  5     1025.0S

$$

ANZ835-935-AMZ111-154-330-350-352-354-370-450-454-472-041500-
...C-MAN AND BUOY OBSERVATIONS...

STATION/POSITION TIME  TEMP    WIND        PRES    WAVE   SWELL
                       AIR SEA DIR/SP/G            HT/PER HT/PER/DIR
                 (UTC) (F)     (DEG/KT/KT) (MB)    (FT/S) (FT/S/D)
BUOY 41004       1350   73 74   70/ 10/ 10 1026.5R   3/10   2/10
BUOY 41008       1350   71 70   80/  6/  8 1025.9R   2/14   2/ 60/14
FOLLY BEACH CMAN 1400   72      70/  3/  4 1026.9R
CAPERS NEARSHORE 1308   71      90/  4/  4 1026.6R
FRIPP NEARSHORE  1300   71      50/  6/  6 1025.4R


STATION/POSITION TIME  TEMP    WIND        PRES    WAVE   SWELL
                       AIR SEA DIR/SP/G            HT/PER HT/PER/DIR
                 (UTC) (F)     (DEG/KT/KT) (MB)    (FT/S) (FT/S/D)
5E ST. MARYS GA  1321      71                N/A     2/12   2/ 70/12
FRYING PAN BUOY  1350   74 72  170/  6/  6 1028.2R   3/12   3/110/12
BUOY 41025       1350   67 77  310/  8/  8 1027.5R   4/11   3/ 70/11
CAPE LOOKOUT NC  1400   66     100/  5/  5 1027.5R
BUOY 41002       1350   68 70   60/ 16/ 17 1027.3R   5/12   5/ 30/12
BUOY 41010       1320   74 78   70/ 12/ 16 1023.9R
ST AUGUSTINE FL  1400   69 71   80/ 16/ 18 1025.7R


$$


USA.gov is the U.S. government's official web portal to all federal, state and local government web resources and services.